Time,TemperatureF,DewpointF,PressureIn,WindDirection,WindDirectionDegrees,WindSpeedMPH,WindSpeedGustMPH,Humidity,HourlyPrecipIn,Conditions,Clouds,dailyrainin,SoftwareType,DateUTC
2013-06-01 00:00:00,58.0,57.0,30.06,North,5,0.0,0.0,96,-99.99,,,-99.99,,2013-06-01 04:00:00,
2013-06-01 00:23:00,58.0,57.0,30.06,North,5,0.0,0.0,96,-99.99,,,-99.99,,2013-06-01 04:23:00,
2013-06-01 00:33:00,58.0,57.0,30.06,North,5,0.0,0.0,96,-99.99,,,-99.99,,2013-06-01 04:33:00,
2013-06-01 00:42:00,58.0,57.0,30.06,North,5,0.0,0.0,96,-99.99,,,-99.99,,2013-06-01 04:42:00,
2013-06-01 00:53:00,58.0,57.0,30.06,North,5,0.0,0.0,96,-99.99,,,-99.99,,2013-06-01 04:53:00,
2013-06-01 01:00:00,57.0,56.0,30.06,NE,44,0.0,0.0,99,-99.99,,,-99.99,,2013-06-01 05:00:00,
2013-06-01 01:32:00,57.0,56.0,30.06,NE,44,0.0,0.0,99,-99.99,,,-99.99,,2013-06-01 05:32:00,
2013-06-01 01:43:00,57.0,56.0,30.06,NE,44,0.0,0.0,99,-99.99,,,-99.99,,2013-06-01 05:43:00,
2013-06-01 01:52:00,57.0,56.0,30.06,NE,44,0.0,0.0,99,-99.99,,,-99.99,,2013-06-01 05:52:00,
2013-06-01 02:00:00,55.0,55.0,30.03,NE,44,0.0,0.0,99,-99.99,,,-99.99,,2013-06-01 06:00:00,
2013-06-01 02:32:00,55.0,55.0,30.03,NE,44,0.0,0.0,99,-99.99,,,-99.99,,2013-06-01 06:32:00,
2013-06-01 02:42:00,55.0,55.0,30.03,NE,44,0.0,0.0,99,-99.99,,,-99.99,,2013-06-01 06:42:00,
2013-06-01 02:52:00,55.0,55.0,30.03,NE,44,0.0,0.0,99,-99.99,,,-99.99,,2013-06-01 06:52:00,
2013-06-01 03:00:00,54.0,54.0,30.03,NE,44,0.0,0.0,99,-99.99,,,-99.99,,2013-06-01 07:00:00,
2013-06-01 03:32:00,54.0,54.0,30.03,NE,44,0.0,0.0,99,-99.99,,,-99.99,,2013-06-01 07:32:00,
2013-06-01 03:42:00,54.0,54.0,30.03,NE,44,0.0,0.0,99,-99.99,,,-99.99,,2013-06-01 07:42:00,
2013-06-01 03:52:00,54.0,54.0,30.03,NE,44,0.0,0.0,99,-99.99,,,-99.99,,2013-06-01 07:52:00,
2013-06-01 05:00:00,53.0,53.0,30.03,North,352,0.0,0.0,100,-99.99,,,-99.99,,2013-06-01 09:00:00,
2013-06-01 05:22:00,53.0,53.0,30.03,North,352,0.0,0.0,100,-99.99,,,-99.99,,2013-06-01 09:22:00,
2013-06-01 05:33:00,53.0,53.0,30.03,North,352,0.0,0.0,100,-99.99,,,-99.99,,2013-06-01 09:33:00,
2013-06-01 05:43:00,53.0,53.0,30.03,North,352,0.0,0.0,100,-99.99,,,-99.99,,2013-06-01 09:43:00,
2013-06-01 05:53:00,53.0,53.0,30.03,North,352,0.0,0.0,100,-99.99,,,-99.99,,2013-06-01 09:53:00,
2013-06-01 06:00:00,53.0,53.0,30.03,NNE,18,0.0,2.0,100,-99.99,,,-99.99,,2013-06-01 10:00:00,
2013-06-01 06:33:00,53.0,53.0,30.03,NNE,18,0.0,2.0,100,-99.99,,,-99.99,,2013-06-01 10:33:00,
2013-06-01 06:42:00,53.0,53.0,30.03,NNE,18,0.0,2.0,100,-99.99,,,-99.99,,2013-06-01 10:42:00,
2013-06-01 06:53:00,53.0,53.0,30.03,NNE,18,0.0,2.0,100,-99.99,,,-99.99,,2013-06-01 10:53:00,
2013-06-01 07:00:00,62.0,59.0,30.03,West,277,0.0,1.0,92,-99.99,,,-99.99,,2013-06-01 11:00:00,
2013-06-01 07:22:00,62.0,59.0,30.03,West,277,0.0,1.0,92,-99.99,,,-99.99,,2013-06-01 11:22:00,
2013-06-01 07:33:00,62.0,59.0,30.03,West,277,0.0,1.0,92,-99.99,,,-99.99,,2013-06-01 11:33:00,
2013-06-01 07:42:00,62.0,59.0,30.03,West,277,0.0,1.0,92,-99.99,,,-99.99,,2013-06-01 11:42:00,
2013-06-01 07:52:00,62.0,59.0,30.03,West,277,0.0,1.0,92,-99.99,,,-99.99,,2013-06-01 11:52:00,
2013-06-01 08:00:00,72.0,64.0,30.03,South,171,3.0,6.0,75,-99.99,,,-99.99,,2013-06-01 12:00:00,
2013-06-01 08:22:00,72.0,64.0,30.03,South,171,3.0,6.0,75,-99.99,,,-99.99,,2013-06-01 12:22:00,
2013-06-01 08:32:00,72.0,64.0,30.03,South,171,3.0,6.0,75,-99.99,,,-99.99,,2013-06-01 12:32:00,
2013-06-01 08:42:00,72.0,64.0,30.03,South,171,3.0,6.0,75,-99.99,,,-99.99,,2013-06-01 12:42:00,
2013-06-01 08:52:00,72.0,64.0,30.03,South,171,3.0,6.0,75,-99.99,,,-99.99,,2013-06-01 12:52:00,
2013-06-01 09:00:00,76.0,65.0,30.00,SE,128,2.0,8.0,71,-99.99,,,-99.99,,2013-06-01 13:00:00,
2013-06-01 09:22:00,76.0,65.0,30.00,SE,128,2.0,8.0,71,-99.99,,,-99.99,,2013-06-01 13:22:00,
2013-06-01 09:32:00,76.0,65.0,30.00,SE,128,2.0,8.0,71,-99.99,,,-99.99,,2013-06-01 13:32:00,
2013-06-01 09:42:00,76.0,65.0,30.00,SE,128,2.0,8.0,71,-99.99,,,-99.99,,2013-06-01 13:42:00,
2013-06-01 09:52:00,76.0,65.0,30.00,SE,128,2.0,8.0,71,-99.99,,,-99.99,,2013-06-01 13:52:00,
2013-06-01 10:00:00,79.0,64.0,29.97,West,281,2.0,7.0,62,-99.99,,,-99.99,,2013-06-01 14:00:00,
2013-06-01 10:22:00,79.0,64.0,29.97,West,281,2.0,7.0,62,-99.99,,,-99.99,,2013-06-01 14:22:00,
2013-06-01 10:32:00,79.0,64.0,29.97,West,281,2.0,7.0,62,-99.99,,,-99.99,,2013-06-01 14:32:00,
2013-06-01 10:42:00,79.0,64.0,29.97,West,281,2.0,7.0,62,-99.99,,,-99.99,,2013-06-01 14:42:00,
2013-06-01 10:52:00,79.0,64.0,29.97,West,281,2.0,7.0,62,-99.99,,,-99.99,,2013-06-01 14:52:00,
2013-06-01 11:00:00,82.0,66.0,29.97,SSE,161,5.0,8.0,60,-99.99,,,-99.99,,2013-06-01 15:00:00,
2013-06-01 11:22:00,82.0,66.0,29.97,SSE,161,5.0,8.0,60,-99.99,,,-99.99,,2013-06-01 15:22:00,
2013-06-01 11:33:00,82.0,66.0,29.97,SSE,161,5.0,8.0,60,-99.99,,,-99.99,,2013-06-01 15:33:00,
2013-06-01 11:43:00,82.0,66.0,29.97,SSE,161,5.0,8.0,60,-99.99,,,-99.99,,2013-06-01 15:43:00,
2013-06-01 11:54:00,82.0,66.0,29.97,SSE,161,5.0,8.0,60,-99.99,,,-99.99,,2013-06-01 15:54:00,
2013-06-01 12:00:00,83.0,66.0,29.97,West,263,0.0,10.0,55,-99.99,,,-99.99,,2013-06-01 16:00:00,
2013-06-01 12:33:00,83.0,66.0,29.97,West,263,0.0,10.0,55,-99.99,,,-99.99,,2013-06-01 16:33:00,
2013-06-01 12:42:00,83.0,66.0,29.97,West,263,0.0,10.0,55,-99.99,,,-99.99,,2013-06-01 16:42:00,
2013-06-01 12:53:00,83.0,66.0,29.97,West,263,0.0,10.0,55,-99.99,,,-99.99,,2013-06-01 16:53:00,
2013-06-01 13:00:00,84.0,65.0,29.94,SSE,162,5.0,12.0,52,-99.99,,,-99.99,,2013-06-01 17:00:00,
2013-06-01 13:22:00,84.0,65.0,29.94,SSE,162,5.0,12.0,52,-99.99,,,-99.99,,2013-06-01 17:22:00,
2013-06-01 13:32:00,84.0,65.0,29.94,SSE,162,5.0,12.0,52,-99.99,,,-99.99,,2013-06-01 17:32:00,
2013-06-01 13:43:00,84.0,65.0,29.94,SSE,162,5.0,12.0,52,-99.99,,,-99.99,,2013-06-01 17:43:00,
2013-06-01 13:52:00,84.0,65.0,29.94,SSE,162,5.0,12.0,52,-99.99,,,-99.99,,2013-06-01 17:52:00,
2013-06-01 14:00:00,85.0,66.0,29.91,SE,129,6.0,14.0,53,-99.99,,,-99.99,,2013-06-01 18:00:00,
2013-06-01 14:22:00,85.0,66.0,29.91,SE,129,6.0,14.0,53,-99.99,,,-99.99,,2013-06-01 18:22:00,
2013-06-01 14:32:00,85.0,66.0,29.91,SE,129,6.0,14.0,53,-99.99,,,-99.99,,2013-06-01 18:32:00,
2013-06-01 14:42:00,85.0,66.0,29.91,SE,129,6.0,14.0,53,-99.99,,,-99.99,,2013-06-01 18:42:00,
2013-06-01 14:52:00,85.0,66.0,29.91,SE,129,6.0,14.0,53,-99.99,,,-99.99,,2013-06-01 18:52:00,
2013-06-01 15:00:00,86.0,66.0,29.91,SSW,208,6.0,12.0,51,-99.99,,,-99.99,,2013-06-01 19:00:00,
2013-06-01 15:32:00,86.0,66.0,29.91,SSW,208,6.0,12.0,51,-99.99,,,-99.99,,2013-06-01 19:32:00,
2013-06-01 15:42:00,86.0,66.0,29.91,SSW,208,6.0,12.0,51,-99.99,,,-99.99,,2013-06-01 19:42:00,
2013-06-01 15:53:00,86.0,66.0,29.91,SSW,208,6.0,12.0,51,-99.99,,,-99.99,,2013-06-01 19:53:00,
2013-06-01 16:00:00,87.0,68.0,29.91,SSE,148,3.0,14.0,54,-99.99,,,-99.99,,2013-06-01 20:00:00,
2013-06-01 16:22:00,87.0,68.0,29.91,SSE,148,3.0,14.0,54,-99.99,,,-99.99,,2013-06-01 20:22:00,
2013-06-01 16:32:00,87.0,68.0,29.91,SSE,148,3.0,14.0,54,-99.99,,,-99.99,,2013-06-01 20:32:00,
2013-06-01 16:42:00,87.0,68.0,29.91,SSE,148,3.0,14.0,54,-99.99,,,-99.99,,2013-06-01 20:42:00,
2013-06-01 16:52:00,87.0,68.0,29.91,SSE,148,3.0,14.0,54,-99.99,,,-99.99,,2013-06-01 20:52:00,
2013-06-01 17:00:00,87.0,68.0,29.88,SSW,213,4.0,13.0,52,-99.99,,,-99.99,,2013-06-01 21:00:00,
2013-06-01 17:22:00,87.0,68.0,29.88,SSW,213,4.0,13.0,52,-99.99,,,-99.99,,2013-06-01 21:22:00,
2013-06-01 17:33:00,87.0,68.0,29.88,SSW,213,4.0,13.0,52,-99.99,,,-99.99,,2013-06-01 21:33:00,
2013-06-01 17:43:00,87.0,68.0,29.88,SSW,213,4.0,13.0,52,-99.99,,,-99.99,,2013-06-01 21:43:00,
2013-06-01 17:53:00,87.0,68.0,29.88,SSW,213,4.0,13.0,52,-99.99,,,-99.99,,2013-06-01 21:53:00,
2013-06-01 18:00:00,88.0,68.0,29.88,South,190,2.0,13.0,51,-99.99,,,-99.99,,2013-06-01 22:00:00,
2013-06-01 18:33:00,88.0,68.0,29.88,South,190,2.0,13.0,51,-99.99,,,-99.99,,2013-06-01 22:33:00,
2013-06-01 18:42:00,88.0,68.0,29.88,South,190,2.0,13.0,51,-99.99,,,-99.99,,2013-06-01 22:42:00,
2013-06-01 18:53:00,88.0,68.0,29.88,South,190,2.0,13.0,51,-99.99,,,-99.99,,2013-06-01 22:53:00,
2013-06-01 19:00:00,84.0,64.0,29.88,SW,235,4.0,11.0,51,-99.99,,,-99.99,,2013-06-01 23:00:00,
2013-06-01 19:22:00,84.0,64.0,29.88,SW,235,4.0,11.0,51,-99.99,,,-99.99,,2013-06-01 23:22:00,
2013-06-01 19:32:00,84.0,64.0,29.88,SW,235,4.0,11.0,51,-99.99,,,-99.99,,2013-06-01 23:32:00,
2013-06-01 19:42:00,84.0,64.0,29.88,SW,235,4.0,11.0,51,-99.99,,,-99.99,,2013-06-01 23:42:00,
2013-06-01 19:52:00,84.0,64.0,29.88,SW,235,4.0,11.0,51,-99.99,,,-99.99,,2013-06-01 23:52:00,
2013-06-01 20:00:00,77.0,66.0,29.91,NW,319,0.0,10.0,71,-99.99,,,-99.99,,2013-06-02 00:00:00,
2013-06-01 20:32:00,77.0,66.0,29.91,NW,319,0.0,10.0,71,-99.99,,,-99.99,,2013-06-02 00:32:00,
2013-06-01 20:42:00,77.0,66.0,29.91,NW,319,0.0,10.0,71,-99.99,,,-99.99,,2013-06-02 00:42:00,
2013-06-01 20:52:00,77.0,66.0,29.91,NW,319,0.0,10.0,71,-99.99,,,-99.99,,2013-06-02 00:52:00,
2013-06-01 21:00:00,70.0,66.0,29.91,North,353,0.0,0.0,89,-99.99,,,-99.99,,2013-06-02 01:00:00,
2013-06-01 21:22:00,70.0,66.0,29.91,North,353,0.0,0.0,89,-99.99,,,-99.99,,2013-06-02 01:22:00,
2013-06-01 21:32:00,70.0,66.0,29.91,North,353,0.0,0.0,89,-99.99,,,-99.99,,2013-06-02 01:32:00,
2013-06-01 21:42:00,70.0,66.0,29.91,North,353,0.0,0.0,89,-99.99,,,-99.99,,2013-06-02 01:42:00,
2013-06-01 21:52:00,70.0,66.0,29.91,North,353,0.0,0.0,89,-99.99,,,-99.99,,2013-06-02 01:52:00,
2013-06-01 22:00:00,68.0,65.0,29.91,NW,318,0.0,0.0,90,-99.99,,,-99.99,,2013-06-02 02:00:00,
2013-06-01 22:32:00,68.0,65.0,29.91,NW,318,0.0,0.0,90,-99.99,,,-99.99,,2013-06-02 02:32:00,
2013-06-01 22:42:00,68.0,65.0,29.91,NW,318,0.0,0.0,90,-99.99,,,-99.99,,2013-06-02 02:42:00,
2013-06-01 22:52:00,68.0,65.0,29.91,NW,318,0.0,0.0,90,-99.99,,,-99.99,,2013-06-02 02:52:00,
2013-06-01 23:00:00,67.0,-99.9,29.94,NNW,330,0.0,0.0,92,-99.99,,,-99.99,,2013-06-02 03:00:00,
2013-06-01 23:22:00,67.0,65.0,29.94,NNW,330,0.0,0.0,92,-99.99,,,-99.99,,2013-06-02 03:22:00,
2013-06-01 23:33:00,67.0,65.0,29.94,NNW,330,0.0,0.0,92,-99.99,,,-99.99,,2013-06-02 03:33:00,
2013-06-01 23:43:00,67.0,65.0,29.94,NNW,330,0.0,0.0,92,-99.99,,,-99.99,,2013-06-02 03:43:00,
2013-06-01 23:53:00,67.0,65.0,29.94,NNW,330,0.0,0.0,92,-99.99,,,-99.99,,2013-06-02 03:53:00,